This is the latest recevied weather packets stored in our database for station/object K7LDN-13. If no packets are shown the sender has not sent any weather packets the latest 10 day(s).
| Time | Temp. | Humidity | Pressure | Rain* | Wind** | Luminosity | Snow |
|---|---|---|---|---|---|---|---|
| 1777957420 | 13.89° C | 59% | 1011.9 hPa | 0 mm | - | 0 W/m² | - |
| 1777957116 | 14.44° C | 58% | 1012 hPa | 0 mm | - | 0 W/m² | - |
| 1777956813 | 14.44° C | 56% | 1011.6 hPa | 0 mm | - | 0 W/m² | - |
| 1777956510 | 15° C | 55% | 1011.5 hPa | 0 mm | - | 0 W/m² | - |
| 1777956207 | 15° C | 54% | 1011.5 hPa | 0 mm | - | 0 W/m² | - |
| 1777955903 | 15° C | 52% | 1011.1 hPa | 0 mm | - | 0 W/m² | - |
| 1777955600 | 15.56° C | 51% | 1010.8 hPa | 0 mm | - | 0 W/m² | - |
| 1777955296 | 15.56° C | 49% | 1011 hPa | 0 mm | - | 0 W/m² | - |
| 1777954993 | 15.56° C | 47% | 1011 hPa | 0 mm | - | 0 W/m² | - |
| 1777954689 | 16.11° C | 45% | 1010.8 hPa | 0 mm | - | 0 W/m² | - |
| 1777954387 | 16.11° C | 42% | 1011.1 hPa | 0 mm | - | 0 W/m² | - |
| 1777954084 | 16.67° C | 40% | 1011 hPa | 0 mm | - | 0 W/m² | - |
| 1777953781 | 16.67° C | 40% | 1011 hPa | 0 mm | - | 0 W/m² | - |
| 1777953478 | 17.22° C | 40% | 1010.7 hPa | 0 mm | - | 0 W/m² | - |
| 1777953174 | 16.67° C | 41% | 1010.8 hPa | 0 mm | - | 0 W/m² | - |
| 1777952871 | 17.22° C | 40% | 1010.4 hPa | 0 mm | - | 0 W/m² | - |
| 1777952568 | 17.22° C | 40% | 1010.6 hPa | 0 mm | - | 0 W/m² | - |
| 1777952264 | 17.22° C | 40% | 1010.3 hPa | 0 mm | - | 0 W/m² | - |
| 1777951962 | 17.22° C | 43% | 1010.4 hPa | 0 mm | - | 0 W/m² | - |
| 1777951660 | 16.67° C | 44% | 1010.2 hPa | 0 mm | - | 0 W/m² | - |
| 1777951356 | 16.67° C | 46% | 1010.2 hPa | 0 mm | - | 0 W/m² | - |
| 1777951053 | 16.67° C | 45% | 1010.3 hPa | 0 mm | - | 0 W/m² | - |
| 1777950749 | 17.22° C | 43% | 1010.2 hPa | 0 mm | - | 0 W/m² | - |
| 1777950447 | 17.22° C | 41% | 1010.4 hPa | 0 mm | - | 0 W/m² | - |
| 1777950143 | 17.22° C | 41% | 1010.2 hPa | 0 mm | - | 0 W/m² | - |
* Rain latest hour (hover to see other rain measurements)
** Current wind speed in m/s (hover to see current wind gust speed)